Flag for Belgium Weather past 2 weeks in Eupen, Belgium

Now
41 °F

Low clouds.


Feels Like: 36 °F
Forecast: 36 / 42 °F
Wind: 8 mph from Southwest

Location: Spa / La Sauveniere

Current Time: Mar 31, 2015 at 2:20:50 AM

Latest Report: Mar 31, 2015 at 1:00 AM


Visibility: N/A

Pressure: 29.70 "Hg

Humidity: 92%

Dew point: 38 °F

Location of EupenLocation

Historic Weather in Eupen — Graph

°F

Eupen temperature yesterday

Maximum temperature yesterday: 44 °F (at 5:00 PM)
Minimum temperature yesterday: 39 °F (at 7:00 AM)
Average temperature yesterday: 41 °F

Past Weeks' High & Low Weather Summary

 TemperatureHumidityPressure
High62 °F (Mar 17, 2:00 PM)100% (Mar 19, 11:00 AM)30.40 "Hg (Mar 19, 11:00 AM)
Low30 °F (Mar 23, 2:00 AM)25% (Mar 17, 2:00 PM)29.41 "Hg (Mar 29, 7:00 PM)
Average41 °F83%30.04 "Hg
* Reported Midnight between Mar 15 and Mar 16 — Mar 31 1:00 AM, Eupen, Weather by CustomWeather, © 2015

Note: Actual official high and low records may vary slightly from our data, if they occured in-between our weather recording intervals... More about our weather records

Advertising

Eupen weather history for previous 24 hours

 ConditionsComfort  
Time TempWeatherWind HumidityBarometerVisibility
1:00 AM
Tue, Mar 31
41 °FLow clouds.8 mph92%29.70 "HgN/A
12:00 AM39 °FLight rain. Overcast.7 mph90%29.77 "Hg5 mi
11:00 PM
Mon, Mar 30
40 °FPassing clouds.6 mph76%29.82 "Hg13 mi
10:00 PM40 °FClear.6 mph70%29.87 "Hg18 mi
9:00 PM40 °FPassing clouds.5 mph69%29.90 "Hg19 mi
8:00 PM41 °FSunny.3 mph66%29.91 "Hg22 mi
7:00 PM42 °FPartly sunny.6 mph59%29.91 "Hg17 mi
6:00 PM43 °FScattered clouds.8 mph51%29.89 "Hg19 mi
5:00 PM44 °FOvercast.5 mph53%29.88 "Hg19 mi
4:00 PM42 °FScattered clouds.8 mph54%29.87 "Hg22 mi
3:00 PM41 °FSunny.8 mph66%29.85 "Hg16 mi
2:00 PM40 °FPassing clouds.7 mph72%29.83 "Hg19 mi
1:00 PM41 °FOvercast.8 mph69%29.78 "Hg18 mi
12:00 PM40 °FOvercast.7 mph68%29.76 "Hg19 mi
11:00 AM40 °FOvercast.8 mph73%29.74 "Hg16 mi
10:00 AM39 °FOvercast.7 mph83%29.69 "Hg12 mi
9:00 AM39 °FLow clouds.7 mph89%29.66 "Hg11 mi
8:00 AM39 °FOvercast.6 mph88%29.63 "Hg10 mi
7:00 AM39 °FPassing clouds.8 mph90%29.60 "Hg9 mi
6:00 AM40 °FOvercast.6 mph90%29.59 "Hg16 mi
5:00 AM40 °FLow clouds.6 mph93%29.56 "Hg8 mi
4:00 AM40 °FLight rain. Low clouds.6 mph95%29.57 "Hg6 mi
3:00 AM40 °FRain. Low clouds.6 mph93%29.56 "Hg9 mi
2:00 AM42 °FLow clouds.7 mph93%29.50 "Hg7 mi
Weather by CustomWeather, © 2015

See weather overviewHow to use our weather pages